[[{"header":{"parameterUnit":"m.s-1","parameterCategory":1,"la1":30.2991,"la2":30.254,"lo1":-89.0895,"lo2":-89.0444,"dy":0.0017,"dx":0.0017,"nx":28,"ny":28,"refTime":"2025-08-19T21:00:00:Z","depth":0,"parameterNumber":2,"parameterNumberName":"U-component_of_WINDS"},"data":[0,0,0,0,0,0,0,0,0,0,0,0,0,0,0,0,0,0,0,0,0,0,0,0,0,0,0,0,0,0,0,0,0,0,0,0,0,0,0,0,0,0,0,0,0,0,0,0,0,0,0,0,0,0,0,0,0,0,2.0674,2.0676,0,2.0838,2.084,2.0842,2.0889,2.0888,2.0887,2.0887,2.1053,2.1058,2.1063,0,0,0,0,0,0,0,0,0,0,0,0,0,2.0399,2.0403,2.0674,2.0676,2.0678,2.0838,2.084,2.0842,2.0889,2.0888,2.0887,2.0886,2.1051,2.1057,2.1064,0,0,0,0,0,0,0,0,0,0,0,0,0,2.0536,2.0405,2.0673,2.0721,2.0727,2.0837,2.084,2.0843,2.089,2.0888,2.0887,2.0886,2.1049,2.1057,2.1065,2.1139,0,0,2.1089,2.1092,0,0,0,0,0,0,0,0,2.0528,2.0546,2.0712,2.0718,2.0724,2.0842,2.0804,2.0942,2.089,2.0828,2.0887,2.0885,2.0984,2.0997,2.103,2.1147,2.1154,2.1089,2.1094,2.1097,2.11,0,0,0,0,0,0,0,2.0518,2.0539,2.0739,2.0714,2.0722,2.0733,2.0751,2.083,2.0911,2.0833,2.0837,2.0856,2.0987,2.1023,2.1035,2.1157,2.1089,2.1096,2.1101,2.1104,2.1342,2.1343,0,0,0,0,0,0,2.0501,2.0531,2.0733,2.0744,2.0621,2.0739,2.0759,2.0805,2.091,2.0925,2.0857,2.0857,2.101,2.1025,2.1041,2.1134,2.1097,2.1105,2.1109,2.134,2.1342,2.1344,0,0,0,0,0,0,2.0495,2.0519,2.0727,2.0638,2.0666,2.0745,2.0797,2.0809,2.0845,2.0928,2.0943,2.0879,2.101,2.103,2.1114,2.1141,2.1108,2.1115,2.1338,2.1341,2.1343,2.1322,0,0,0,0,0,0,2.0487,2.0516,2.0546,2.0639,2.067,2.0798,2.0798,2.0814,2.0859,2.0861,2.0953,2.0966,2.101,2.1102,2.1122,2.1151,2.1122,2.1336,2.1339,2.1342,2.1321,2.1323,2.1326,0,0,0,0,0,2.0477,2.0533,2.0547,2.0572,2.0709,2.08,2.0818,2.0867,2.0861,2.0891,2.0944,2.0964,2.1135,2.1111,2.1133,2.1165,2.1335,2.1338,2.1342,2.132,2.1323,2.1326,0,0,0,0,0,0,2.0441,2.0546,2.0563,2.0651,2.0716,2.0808,2.0847,2.0869,2.0937,2.0936,2.0994,2.1015,2.1095,2.1139,2.111,2.1242,2.1235,2.1243,2.121,2.1214,2.1217,2.1204,2.1128,0,0,0,0,0,2.0444,2.0509,2.0597,2.0667,2.0699,2.0767,2.0808,2.0841,2.091,2.0938,2.0997,2.1063,2.1132,2.1176,2.1243,2.1328,2.1347,2.136,2.1363,2.1364,2.1371,2.1417,2.1424,2.1356,2.1356,2.1356,0,0,2.0449,2.0515,2.0553,2.0661,2.0715,2.0781,2.079,2.0859,2.0908,2.0948,2.1032,2.1077,2.1155,2.1239,2.1279,2.1278,2.1394,2.1369,2.137,2.1375,2.1422,2.1428,2.1433,2.1358,2.1358,2.1357,0,0,2.0493,2.055,2.0613,2.0667,2.0749,2.0795,2.081,2.0898,2.093,2.1015,2.1046,2.1105,2.1222,2.1275,2.1318,2.1381,2.1401,2.1402,2.1414,2.1459,2.1464,2.1469,2.1491,2.1498,2.1408,2.1408,2.1408,0,2.0489,2.059,2.0643,2.0711,2.0757,2.0797,2.0861,2.0911,2.101,2.1041,2.1038,2.1186,2.1241,2.1337,2.1353,2.1386,2.1404,2.1391,2.1459,2.1465,2.147,2.1491,2.1499,2.1407,2.1407,2.1407,2.1407,0,2.0581,2.065,2.0691,2.0787,2.0838,2.0903,2.0965,2.1011,2.1039,2.1084,2.1169,2.1236,2.1318,2.1343,2.1371,2.1444,2.1441,2.1448,2.1442,2.1475,2.1496,2.1504,2.1406,2.1406,2.1407,2.1407,0,0,2.0606,2.073,2.0744,2.0788,2.0881,2.0935,2.1002,2.1082,2.1119,2.1186,2.1243,2.1341,2.1348,2.1396,2.1431,2.147,2.1514,2.1473,2.1476,2.1477,2.1597,2.159,2.1599,2.1529,2.153,2.1532,2.159,0,2.066,2.0782,2.0831,2.0929,2.0993,2.1032,2.109,2.1153,2.1197,2.1257,2.1305,2.1373,2.1378,2.1407,2.1448,2.15,2.1539,2.1497,2.1581,2.1583,2.1559,2.161,2.1603,2.1655,2.1599,2.16,2.1601,0,2.074,2.0808,2.0912,2.0997,2.1026,2.1077,2.1154,2.1212,2.1283,2.1313,2.1366,2.1398,2.1469,2.1459,2.1556,2.1526,2.1563,2.1594,2.1597,2.1606,2.1593,2.1619,2.1673,2.168,2.1615,2.1614,2.1613,0,2.0746,2.0864,2.0942,2.0978,2.1079,2.1114,2.1158,2.1228,2.1273,2.134,2.137,2.1444,2.1484,2.1541,2.1592,2.158,2.1684,2.1678,2.1709,2.1707,2.1728,2.1726,2.1787,2.1754,2.1754,2.1753,2.1753,0,2.0801,2.0863,2.0946,2.0993,2.1064,2.1119,2.1187,2.1233,2.1296,2.1352,2.139,2.1442,2.1507,2.1567,2.1607,2.1681,2.1699,2.1724,2.1733,2.172,2.1716,2.1744,2.1741,2.1756,2.1755,2.1755,2.1754,0,2.0819,2.0877,2.0964,2.1053,2.1077,2.1125,2.12,2.1247,2.1293,2.1364,2.1384,2.1455,2.1527,2.1584,2.1679,2.1706,2.1783,2.1794,2.1758,2.1763,2.179,2.1786,2.1871,2.1884,2.1842,2.1842,2.1843,0,2.085,2.0898,2.0993,2.1033,2.1077,2.1142,2.1188,2.1245,2.1291,2.1376,2.1413,2.1488,2.1551,2.1665,2.1725,2.1797,2.1809,2.1834,2.182,2.1805,2.1808,2.1804,2.1809,2.1835,2.1835,2.1836,2.1836,0,2.0897,2.0924,2.0989,2.1064,2.1118,2.118,2.1243,2.1274,2.1342,2.1391,2.1466,2.1515,2.1612,2.1685,2.1764,2.1808,2.1833,2.184,2.185,2.1836,2.1813,2.1825,2.1762,2.1837,2.1837,2.1837,2.1837,2.1837,2.0922,2.0967,2.104,2.1111,2.1165,2.1222,2.127,2.1322,2.1386,2.1469,2.1498,2.1575,2.1645,2.1753,2.1797,2.1857,2.1859,2.1874,2.1878,2.1881,2.1879,2.1804,2.1872,2.1872,2.1872,2.1872,2.1872,0,2.0971,2.102,2.1085,2.1171,2.1227,2.1247,2.1317,2.1362,2.1429,2.1492,2.1554,2.1639,2.1711,2.1776,2.1851,2.1886,2.1899,2.1904,2.1901,2.1911,2.1874,2.1857,2.1892,2.1892,2.1892,2.1892,2.1892,2.1892,2.1002,2.1079,2.1114,2.1217,2.1265,2.1341,2.1379,2.1432,2.1483,2.1577,2.1637,2.1679,2.1743,2.1822,2.1889,2.1906,2.1931,2.1932,2.1952,2.1916,2.1913,2.1911,2.1895,2.1937,2.1938,2.1984,2.1984,2.1985]},{"header":{"parameterUnit":"m.s-1","parameterCategory":1,"la1":30.2991,"la2":30.254,"lo1":-89.0895,"lo2":-89.0444,"dy":0.0017,"dx":0.0017,"nx":28,"ny":28,"refTime":"2025-08-19T21:00:00:Z","depth":0,"parameterNumber":3,"parameterNumberName":"V-component_of_WINDS"},"data":[0,0,0,0,0,0,0,0,0,0,0,0,0,0,0,0,0,0,0,0,0,0,0,0,0,0,0,0,0,0,0,0,0,0,0,0,0,0,0,0,0,0,0,0,0,0,0,0,0,0,0,0,0,0,0,0,0,0,5.2159,5.2159,0,5.215,5.215,5.215,5.2063,5.2061,5.2059,5.2057,5.2048,5.205,5.2051,0,0,0,0,0,0,0,0,0,0,0,0,0,5.2102,5.2104,5.2159,5.2159,5.2159,5.215,5.215,5.215,5.2064,5.2061,5.2059,5.2056,5.2047,5.2049,5.2052,0,0,0,0,0,0,0,0,0,0,0,0,0,5.2114,5.2104,5.2159,5.2115,5.2111,5.215,5.215,5.215,5.2064,5.2061,5.2058,5.2055,5.2047,5.2049,5.2052,5.2133,0,0,5.206,5.2061,0,0,0,0,0,0,0,0,5.2113,5.2116,5.2122,5.2118,5.2114,5.2105,5.2126,5.2144,5.2065,5.2082,5.2057,5.2053,5.2069,5.207,5.2075,5.2132,5.2132,5.206,5.2062,5.2063,5.2064,0,0,0,0,0,0,0,5.2112,5.2116,5.2156,5.2122,5.2117,5.2096,5.2094,5.2129,5.2094,5.208,5.2074,5.2074,5.2067,5.2073,5.2075,5.2132,5.206,5.2062,5.2064,5.2065,5.2254,5.2258,0,0,0,0,0,0,5.2118,5.2116,5.2156,5.2155,5.2105,5.2099,5.2097,5.2111,5.2093,5.2088,5.2077,5.207,5.207,5.2072,5.2074,5.2167,5.2063,5.2065,5.2067,5.2251,5.2255,5.2259,0,0,0,0,0,0,5.2117,5.2122,5.2156,5.2134,5.2137,5.2104,5.212,5.2112,5.2119,5.2091,5.2084,5.209,5.2068,5.207,5.2119,5.2165,5.2067,5.2069,5.2247,5.2252,5.2257,5.2354,0,0,0,0,0,0,5.2116,5.2122,5.2153,5.2135,5.2138,5.2202,5.2123,5.2115,5.2123,5.2114,5.2101,5.2096,5.2065,5.2115,5.2121,5.2167,5.2071,5.2243,5.2249,5.2255,5.2347,5.2362,5.2376,0,0,0,0,0,5.2114,5.2181,5.2155,5.216,5.2176,5.2205,5.2206,5.2169,5.2128,5.2158,5.214,5.2096,5.216,5.2121,5.2127,5.2175,5.224,5.2247,5.2255,5.234,5.2359,5.2375,0,0,0,0,0,0,5.2205,5.2178,5.2149,5.2212,5.2211,5.219,5.2227,5.2191,5.2202,5.2193,5.2147,5.2145,5.22,5.2192,5.215,5.2252,5.2192,5.2201,5.2255,5.2273,5.2287,5.2287,5.2073,0,0,0,0,0,5.2233,5.2258,5.2233,5.2291,5.2292,5.226,5.2271,5.2243,5.2241,5.224,5.2225,5.2225,5.2244,5.2258,5.2274,5.2346,5.2341,5.2381,5.2396,5.2408,5.2416,5.2452,5.247,5.2284,5.2284,5.2284,0,0,5.2289,5.2278,5.2297,5.2309,5.2305,5.2333,5.226,5.2293,5.2313,5.2245,5.2289,5.2279,5.2275,5.2335,5.2361,5.233,5.2466,5.2417,5.2427,5.2429,5.2462,5.248,5.2495,5.229,5.2289,5.2288,0,0,5.2407,5.2401,5.2449,5.2446,5.2441,5.2419,5.2431,5.2415,5.2406,5.245,5.2399,5.2422,5.2457,5.2456,5.2461,5.2578,5.2539,5.2585,5.2659,5.2696,5.271,5.2723,5.2764,5.278,5.2594,5.2594,5.2594,0,5.2478,5.2518,5.2478,5.2513,5.252,5.246,5.2507,5.2507,5.2508,5.2514,5.248,5.2522,5.2515,5.2574,5.2603,5.2609,5.262,5.2586,5.2711,5.2724,5.2735,5.2774,5.279,5.26,5.2599,5.2598,5.2598,0,5.2606,5.2634,5.2673,5.2675,5.2686,5.2728,5.2694,5.271,5.2681,5.2663,5.2709,5.2699,5.2712,5.2724,5.2696,5.2779,5.276,5.272,5.2658,5.2759,5.2795,5.2809,5.2608,5.2606,5.2604,5.2603,0,0,5.278,5.2759,5.2774,5.2774,5.2764,5.2785,5.2824,5.2837,5.2852,5.2855,5.2886,5.2917,5.2879,5.2884,5.2856,5.2888,5.2981,5.2843,5.2842,5.2868,5.3071,5.3101,5.3119,5.2955,5.2957,5.296,5.3071,0,5.2892,5.2957,5.2922,5.2992,5.3017,5.296,5.2994,5.2992,5.2976,5.2995,5.2978,5.3,5.2949,5.2952,5.2981,5.2963,5.3021,5.2955,5.2983,5.2984,5.2985,5.3137,5.3169,5.3275,5.3085,5.3087,5.3089,0,5.3032,5.3041,5.3113,5.3098,5.3107,5.3138,5.3147,5.3166,5.3162,5.3149,5.3154,5.3118,5.3155,5.3096,5.3146,5.3102,5.3111,5.3105,5.3108,5.3108,5.3042,5.3141,5.3307,5.3323,5.311,5.3109,5.3107,0,5.3151,5.3181,5.3227,5.3229,5.3213,5.3236,5.3231,5.3224,5.3234,5.3242,5.3247,5.326,5.3267,5.3277,5.3245,5.3205,5.33,5.3237,5.3289,5.329,5.3311,5.331,5.348,5.3319,5.3318,5.3318,5.3318,0,5.328,5.3326,5.328,5.3309,5.3359,5.3319,5.3369,5.3358,5.3352,5.3378,5.333,5.3355,5.3312,5.3332,5.3308,5.3353,5.3357,5.3346,5.3339,5.335,5.3351,5.3355,5.3347,5.3322,5.3321,5.3321,5.332,0,5.3421,5.3392,5.3439,5.342,5.3417,5.3454,5.3438,5.3464,5.3445,5.3478,5.3483,5.3453,5.3475,5.3445,5.3464,5.3447,5.3509,5.3491,5.351,5.3505,5.3558,5.3553,5.3736,5.3757,5.3583,5.3585,5.3586,0,5.3504,5.3539,5.3523,5.3537,5.3534,5.3556,5.3566,5.3528,5.354,5.3538,5.3564,5.3582,5.3594,5.3632,5.3612,5.3626,5.3608,5.3671,5.361,5.362,5.3608,5.3606,5.3609,5.3683,5.3685,5.3687,5.3689,0,5.3656,5.364,5.3656,5.3667,5.368,5.3686,5.369,5.3704,5.3663,5.3679,5.3701,5.3711,5.373,5.3748,5.3757,5.3751,5.3714,5.3708,5.3721,5.3732,5.3741,5.3736,5.3543,5.3704,5.3702,5.3701,5.37,5.37,5.377,5.3797,5.3791,5.381,5.3808,5.3813,5.3836,5.382,5.3837,5.3849,5.3826,5.3853,5.3849,5.3857,5.3855,5.3876,5.3849,5.3867,5.3872,5.3877,5.3885,5.3739,5.3878,5.3878,5.3877,5.3877,5.3876,0,5.3918,5.3911,5.3929,5.3935,5.395,5.3913,5.3915,5.393,5.3955,5.3954,5.3966,5.3991,5.4009,5.3991,5.4005,5.4025,5.4008,5.403,5.4028,5.4027,5.3909,5.3896,5.4044,5.4044,5.4043,5.4043,5.4043,5.4043,5.3997,5.4041,5.4025,5.4068,5.406,5.4086,5.4091,5.4094,5.4093,5.4123,5.4137,5.4125,5.4117,5.413,5.4145,5.4139,5.4146,5.4174,5.4162,5.4052,5.4035,5.402,5.4007,5.4176,5.4176,5.4278,5.4279,5.428]}]]